Hermiston, OR

8:51 AM PDT on March 26, 2017 (GMT -0700)
Hermiston Municipal

Weather History for KHRI - June, 2014

Change the Weather History Date:

Monday, June 9, 2014

  Actual Average Record
Temperature  
Mean Temperature 72 °F 65 °F  
Max Temperature 86 °F 79 °F 102 °F (1918)
Min Temperature 61 °F 50 °F 40 °F (1926)
Cooling Degree Days 8    
Growing Degree Days 22 (Base 50)    
Moisture  
Dew Point 47 °F    
Average Humidity 43    
Maximum Humidity 70    
Minimum Humidity 18    
Precipitation  
Precipitation 0.00 in 0.03 in 0.37 in (1947)
Month to date precipitation 0.27  
Year to date precipitation 5.60  
Sea Level Pressure  
Sea Level Pressure 29.91 in    
Wind  
Wind Speed 8 mph (WSW)    
Max Wind Speed 14 mph    
Max Gust Speed -    
Visibility 10 miles    
Events      
T = Trace of Precipitation, MM = Missing Value Source: NWS Daily Summary

Daily Weather History Graph

Daily Weather History Graph

Search for Another Location

Airport or City:

Trip Planner

Search our weather history database for the weather conditions in past years. The results will help you decide how hot, cold, wet, or windy it might be!

Date:

Astronomy

Jun. 09, 2014 Rise Set
Actual Time 5:07 AM PDT 8:45 PM PDT
Civil Twilight 4:29 AM PDT 9:23 PM PDT
Nautical Twilight 3:38 AM PDT 10:14 PM PDT
Astronomical Twilight 2:30 AM PDT 11:23 PM PDT
Moon 5:02 PM PDT (6/9) 2:49 AM PDT (6/9)
Length of Visible Light 16h 54m
Length of Day
15h 38m
Waxing Gibbous, 86% of the Moon is Illuminated
Jun 9
Waxing Gibbous
Jun 12
Full
Jun 19
Last Quarter
Jun 27
New
Jul 5
First Quarter

Hourly Weather History & Observations

Time (PDT) Temp. Dew Point Humidity Pressure Visibility Wind Dir Wind Speed Gust Speed Precip Events Conditions
12:53 AM 66.9 °F 50.0 °F 54% 29.94 in 10.0 mi West 9.2 mph - N/A   Clear
1:53 AM 66.9 °F 48.9 °F 52% 29.95 in 10.0 mi WSW 10.4 mph - N/A   Clear
2:53 AM 64.9 °F 48.9 °F 56% 29.96 in 10.0 mi SW 8.1 mph - N/A   Clear
3:53 AM 63.0 °F 48.9 °F 60% 29.96 in 10.0 mi SW 8.1 mph - N/A   Clear
4:53 AM 61.0 °F 48.9 °F 64% 29.96 in 10.0 mi SW 5.8 mph - N/A   Clear
5:53 AM 61.0 °F 51.1 °F 70% 29.97 in 10.0 mi West 6.9 mph - N/A   Clear
6:53 AM 64.9 °F 51.1 °F 61% 29.98 in 10.0 mi WSW 8.1 mph - N/A   Clear
8:53 AM 72.0 °F 50.0 °F 46% 29.99 in 10.0 mi WNW 9.2 mph - N/A   Clear
9:53 AM 73.9 °F 48.9 °F 41% 29.97 in 10.0 mi North - - N/A   Clear
10:53 AM 75.0 °F 48.9 °F 40% 29.96 in 10.0 mi WNW 9.2 mph - N/A   Clear
1:53 PM 81.0 °F 46.0 °F 29% 29.91 in 10.0 mi Calm Calm - N/A   Clear
2:53 PM 82.0 °F 46.9 °F 29% 29.90 in 10.0 mi SW 10.4 mph - N/A   Clear
3:53 PM 84.9 °F 37.0 °F 18% 29.88 in 10.0 mi WNW 8.1 mph - N/A   Clear
4:53 PM 84.9 °F 43.0 °F 23% 29.86 in 10.0 mi NW 9.2 mph - N/A   Clear
5:53 PM 84.9 °F 39.9 °F 20% 29.85 in 10.0 mi West 8.1 mph - N/A   Clear
6:53 PM 84.0 °F 41.0 °F 22% 29.83 in 10.0 mi West 6.9 mph - N/A   Clear
7:53 PM 81.0 °F 42.1 °F 25% 29.83 in 10.0 mi WSW 6.9 mph - N/A   Clear
8:53 PM 73.0 °F 48.9 °F 42% 29.83 in 10.0 mi WSW 13.8 mph - N/A   Clear
9:53 PM 68.0 °F 46.9 °F 47% 29.87 in 10.0 mi ENE 6.9 mph - N/A   Clear
10:53 PM 66.9 °F 46.0 °F 47% 29.87 in 10.0 mi SSW 9.2 mph - N/A   Clear
11:53 PM 64.9 °F 46.0 °F 50% 29.88 in 10.0 mi SW 12.7 mph - N/A   Clear